AAL5626 KCLT-KCHS

Flight info

Callsign AAL5626
Flight time 0h 29m
Altitude 22000
Route KWEEN5 UNJAM OSPRI7
Aircraft A319/M-SDE3FGHIRWY/LB1

Departure

Time 2026-04-21 15:23
Airport Charlotte Douglas International Airport (KCLT)

Arrival

Time 2026-04-21 15:52
Airport Charleston International Airport (KCHS)
Time Latitude Longitude Altitude Speed Heading
2026-04-21 14:52 35.21856 -80.94190 730 ft 0 kts 253°
2026-04-21 15:11 35.21859 -80.94178 730 ft 3 kts 251°
2026-04-21 15:12 35.21866 -80.94154 731 ft 3 kts 247°
2026-04-21 15:12 35.21874 -80.94132 732 ft 3 kts 242°
2026-04-21 15:12 35.21885 -80.94111 731 ft 3 kts 231°
2026-04-21 15:12 35.21898 -80.94094 732 ft 3 kts 195°
2026-04-21 15:13 35.21910 -80.94093 732 ft 1 kts 144°
2026-04-21 15:13 35.21913 -80.94096 732 ft 0 kts 144°
2026-04-21 15:17 35.21912 -80.94096 732 ft 1 kts 144°
2026-04-21 15:17 35.21897 -80.94081 732 ft 5 kts 141°
2026-04-21 15:17 35.21858 -80.94041 732 ft 9 kts 139°
2026-04-21 15:18 35.21807 -80.93986 732 ft 11 kts 138°
2026-04-21 15:18 35.21746 -80.93919 732 ft 13 kts 138°
2026-04-21 15:18 35.21681 -80.93844 733 ft 13 kts 133°
2026-04-21 15:18 35.21619 -80.93755 732 ft 15 kts 128°
2026-04-21 15:19 35.21541 -80.93675 732 ft 15 kts 168°
2026-04-21 15:19 35.21430 -80.93662 733 ft 16 kts 176°
2026-04-21 15:19 35.21312 -80.93653 733 ft 18 kts 176°
2026-04-21 15:19 35.21184 -80.93641 733 ft 19 kts 176°
2026-04-21 15:20 35.21050 -80.93630 733 ft 20 kts 175°
2026-04-21 15:20 35.20912 -80.93617 733 ft 21 kts 176°
2026-04-21 15:20 35.20767 -80.93605 733 ft 21 kts 176°
2026-04-21 15:20 35.20616 -80.93593 733 ft 22 kts 176°
2026-04-21 15:21 35.20462 -80.93579 733 ft 22 kts 175°
2026-04-21 15:21 35.20312 -80.93567 733 ft 21 kts 175°
2026-04-21 15:21 35.20184 -80.93555 733 ft 15 kts 176°
2026-04-21 15:21 35.20121 -80.93546 733 ft 6 kts 158°
2026-04-21 15:22 35.20099 -80.93500 732 ft 7 kts 102°
2026-04-21 15:22 35.20103 -80.93430 734 ft 9 kts 61°
2026-04-21 15:22 35.20189 -80.93423 735 ft 29 kts 355°
2026-04-21 15:22 35.20677 -80.93462 736 ft 107 kts 356°
2026-04-21 15:23 35.21614 -80.93541 868 ft 150 kts 359°
2026-04-21 15:23 35.22651 -80.93569 1553 ft 156 kts 11°
2026-04-21 15:23 35.23712 -80.93186 2286 ft 160 kts 21°
2026-04-21 15:23 35.24782 -80.92815 3025 ft 168 kts 17°
2026-04-21 15:24 35.25987 -80.92423 3580 ft 185 kts 16°
2026-04-21 15:24 35.27280 -80.91965 4205 ft 204 kts 14°
2026-04-21 15:24 35.28621 -80.91188 4753 ft 233 kts 40°
2026-04-21 15:24 35.29447 -80.89339 5378 ft 268 kts 77°
2026-04-21 15:25 35.29196 -80.87021 6314 ft 288 kts 112°
2026-04-21 15:25 35.27888 -80.85133 7333 ft 300 kts 146°
2026-04-21 15:25 35.25906 -80.84305 8316 ft 306 kts 176°
2026-04-21 15:25 35.23771 -80.84423 9321 ft 309 kts 190°
2026-04-21 15:26 35.21633 -80.84872 10299 ft 316 kts 193°
2026-04-21 15:26 35.19387 -80.85385 10737 ft 341 kts 193°
2026-04-21 15:26 35.16963 -80.85910 11139 ft 364 kts 189°
2026-04-21 15:26 35.14406 -80.86167 11839 ft 374 kts 184°
2026-04-21 15:27 35.11829 -80.86201 12906 ft 370 kts 180°
2026-04-21 15:27 35.09246 -80.86132 13872 ft 373 kts 180°
2026-04-21 15:27 35.06635 -80.86035 14669 ft 377 kts 180°
2026-04-21 15:27 35.03989 -80.85956 15394 ft 382 kts 181°
2026-04-21 15:28 35.01311 -80.85914 16119 ft 387 kts 182°
2026-04-21 15:28 34.98601 -80.85908 16830 ft 391 kts 182°
2026-04-21 15:28 34.95861 -80.85927 17534 ft 396 kts 183°
2026-04-21 15:28 34.93054 -80.85961 17990 ft 409 kts 183°
2026-04-21 15:29 34.90170 -80.85997 18494 ft 418 kts 183°
2026-04-21 15:29 34.87231 -80.86027 19090 ft 424 kts 183°
2026-04-21 15:29 34.84260 -80.86047 19695 ft 428 kts 183°
2026-04-21 15:29 34.81258 -80.86059 20318 ft 432 kts 183°
2026-04-21 15:30 34.79261 -80.85940 20718 ft 437 kts 177°
2026-04-21 15:30 34.75227 -80.85419 21526 ft 442 kts 177°
2026-04-21 15:30 34.72148 -80.85024 22133 ft 446 kts 177°
2026-04-21 15:30 34.69049 -80.84634 22715 ft 449 kts 177°
2026-04-21 15:31 34.66975 -80.84380 23096 ft 451 kts 178°
2026-04-21 15:31 34.63832 -80.84043 23382 ft 453 kts 179°
2026-04-21 15:31 34.60637 -80.83753 23434 ft 463 kts 179°
2026-04-21 15:31 34.57400 -80.83490 23439 ft 468 kts 180°
2026-04-21 15:32 34.54144 -80.83231 23426 ft 469 kts 180°
2026-04-21 15:32 34.50879 -80.82963 23423 ft 469 kts 179°
2026-04-21 15:32 34.47622 -80.82682 23422 ft 469 kts 179°
2026-04-21 15:32 34.44398 -80.82393 23412 ft 469 kts 179°
2026-04-21 15:33 34.41148 -80.82094 23422 ft 469 kts 179°
2026-04-21 15:33 34.37881 -80.81790 23418 ft 469 kts 179°
2026-04-21 15:33 34.34618 -80.81486 23430 ft 469 kts 179°
2026-04-21 15:33 34.31359 -80.81183 23424 ft 469 kts 179°
2026-04-21 15:34 34.28102 -80.80885 23425 ft 469 kts 179°
2026-04-21 15:34 34.24848 -80.80592 23413 ft 468 kts 179°
2026-04-21 15:34 34.21594 -80.80303 23412 ft 468 kts 179°
2026-04-21 15:34 34.18341 -80.79967 23400 ft 469 kts 178°
2026-04-21 15:35 34.15099 -80.79557 23407 ft 469 kts 176°
2026-04-21 15:35 34.11850 -80.79097 23382 ft 469 kts 176°
2026-04-21 15:35 34.08608 -80.78621 23380 ft 469 kts 176°
2026-04-21 15:35 34.05361 -80.78148 23374 ft 469 kts 176°
2026-04-21 15:36 34.02120 -80.77692 23385 ft 469 kts 176°
2026-04-21 15:36 33.98880 -80.77251 23384 ft 468 kts 176°
2026-04-21 15:36 33.95635 -80.76821 23383 ft 468 kts 177°
2026-04-21 15:36 33.92395 -80.76402 23383 ft 468 kts 177°
2026-04-21 15:37 33.89156 -80.75988 23383 ft 468 kts 177°
2026-04-21 15:37 33.85913 -80.75571 23381 ft 468 kts 177°
2026-04-21 15:37 33.82716 -80.75155 23379 ft 468 kts 177°
2026-04-21 15:37 33.79473 -80.74728 23376 ft 468 kts 177°
2026-04-21 15:38 33.76232 -80.74298 23374 ft 468 kts 177°
2026-04-21 15:38 33.72987 -80.73868 23375 ft 468 kts 177°
2026-04-21 15:38 33.69743 -80.73439 23374 ft 468 kts 177°
2026-04-21 15:38 33.66495 -80.73009 23379 ft 466 kts 177°
2026-04-21 15:39 33.63312 -80.72586 23149 ft 455 kts 177°
2026-04-21 15:39 33.60139 -80.72167 21937 ft 464 kts 176°
2026-04-21 15:39 33.56900 -80.71742 21131 ft 466 kts 176°
2026-04-21 15:39 33.53698 -80.71321 20580 ft 460 kts 176°
2026-04-21 15:40 33.50561 -80.70909 19973 ft 456 kts 176°
2026-04-21 15:40 33.47413 -80.70497 19389 ft 453 kts 175°
2026-04-21 15:40 33.44289 -80.70088 18731 ft 452 kts 175°
2026-04-21 15:40 33.41124 -80.69677 17753 ft 457 kts 175°
2026-04-21 15:41 33.37995 -80.69270 17309 ft 448 kts 175°
2026-04-21 15:41 33.34896 -80.68865 16740 ft 445 kts 175°
2026-04-21 15:41 33.31869 -80.68461 16590 ft 431 kts 175°
2026-04-21 15:41 33.28935 -80.67969 16336 ft 421 kts 168°
2026-04-21 15:42 33.26203 -80.66795 15902 ft 415 kts 152°
2026-04-21 15:42 33.23824 -80.64880 15437 ft 409 kts 137°
2026-04-21 15:42 33.21939 -80.62380 14962 ft 401 kts 122°
2026-04-21 15:42 33.20623 -80.59480 14484 ft 393 kts 109°
2026-04-21 15:43 33.19607 -80.56458 13960 ft 390 kts 108°
2026-04-21 15:43 33.18604 -80.53492 13730 ft 377 kts 108°
2026-04-21 15:43 33.17640 -80.50664 13594 ft 359 kts 108°
2026-04-21 15:43 33.16720 -80.47972 13468 ft 342 kts 108°
2026-04-21 15:44 33.15839 -80.45391 13327 ft 328 kts 108°
2026-04-21 15:44 33.14990 -80.42890 13113 ft 322 kts 108°
2026-04-21 15:44 33.14021 -80.40520 12835 ft 323 kts 120°
2026-04-21 15:44 33.12532 -80.38516 12551 ft 325 kts 138°
2026-04-21 15:45 33.10612 -80.37093 12248 ft 324 kts 154°
2026-04-21 15:45 33.08578 -80.35935 11846 ft 325 kts 153°
2026-04-21 15:45 33.06539 -80.34773 11410 ft 324 kts 153°
2026-04-21 15:45 33.04504 -80.33617 10984 ft 322 kts 154°
2026-04-21 15:46 33.02470 -80.32509 10557 ft 319 kts 154°
2026-04-21 15:46 33.00444 -80.31437 10121 ft 316 kts 154°
2026-04-21 15:46 32.98444 -80.30389 9649 ft 313 kts 155°
2026-04-21 15:46 32.96456 -80.29350 9180 ft 309 kts 155°
2026-04-21 15:47 32.94493 -80.28320 8708 ft 306 kts 154°
2026-04-21 15:47 32.92548 -80.27292 8107 ft 307 kts 154°
2026-04-21 15:47 32.90567 -80.26243 7315 ft 314 kts 155°
2026-04-21 15:47 32.88587 -80.25196 6485 ft 317 kts 155°
2026-04-21 15:48 32.86588 -80.24092 5622 ft 315 kts 149°
2026-04-21 15:48 32.85001 -80.22346 4787 ft 310 kts 123°
2026-04-21 15:48 32.84023 -80.20086 3987 ft 305 kts 109°
2026-04-21 15:48 32.83294 -80.17806 3708 ft 284 kts 108°
2026-04-21 15:49 32.82625 -80.15697 3640 ft 259 kts 108°
2026-04-21 15:49 32.81979 -80.13820 3708 ft 232 kts 110°
2026-04-21 15:49 32.81391 -80.12142 3792 ft 203 kts 104°
2026-04-21 15:49 32.81277 -80.10571 3547 ft 184 kts 78°
2026-04-21 15:50 32.81454 -80.09193 3442 ft 153 kts 77°
2026-04-21 15:50 32.81948 -80.08182 3061 ft 142 kts 36°
2026-04-21 15:50 32.82821 -80.07563 2514 ft 147 kts 26°
2026-04-21 15:50 32.83802 -80.07264 1935 ft 151 kts 27°
2026-04-21 15:51 32.84707 -80.06786 1610 ft 142 kts 32°
2026-04-21 15:51 32.85561 -80.06153 1070 ft 148 kts 31°
2026-04-21 15:51 32.86455 -80.05661 793 ft 134 kts 26°
2026-04-21 15:51 32.87284 -80.05198 524 ft 125 kts 26°
2026-04-21 15:52 32.88088 -80.04765 228 ft 126 kts 25°
2026-04-21 15:52 32.88866 -80.04353 36 ft 112 kts 25°
2026-04-21 15:52 32.89380 -80.04077 43 ft 39 kts 24°
2026-04-21 15:52 32.89495 -80.04016 44 ft 19 kts 24°
2026-04-21 15:53 32.89643 -80.03932 45 ft 19 kts 42°
2026-04-21 15:53 32.89657 -80.03797 41 ft 18 kts 96°
2026-04-21 15:53 32.89639 -80.03650 41 ft 17 kts 100°
2026-04-21 15:53 32.89568 -80.03583 41 ft 15 kts 179°
2026-04-21 15:54 32.89464 -80.03586 44 ft 15 kts 183°
2026-04-21 15:54 32.89356 -80.03591 46 ft 16 kts 180°
2026-04-21 15:54 32.89242 -80.03592 47 ft 17 kts 182°
2026-04-21 15:54 32.89119 -80.03596 48 ft 18 kts 181°
2026-04-21 15:55 32.88985 -80.03604 46 ft 21 kts 188°
2026-04-21 15:55 32.88839 -80.03627 40 ft 20 kts 188°
2026-04-21 15:55 32.88739 -80.03665 38 ft 11 kts 185°
2026-04-21 15:55 32.88658 -80.03657 38 ft 12 kts 182°
2026-04-21 15:56 32.88573 -80.03665 37 ft 8 kts 162°
2026-04-21 15:56 32.88543 -80.03639 37 ft 5 kts 143°
2026-04-21 15:56 32.88539 -80.03636 37 ft 0 kts 143°